Stations météo

réclame
Mon MeteoGroup
Görlitz, Allemagne (10499): Température de l'air & dewpoint: 09.08.2018 01:00:00 - 15.08.2018 01:00:00 (CEST)Görlitz, Allemagne (10499): Température de l'air 5cm & Température de l'air -5cm: 09.08.2018 01:00:00 - 15.08.2018 01:00:00 (CEST)Görlitz, Allemagne (10499): Température de l'air -20cm & Température de l'air -100cm: 09.08.2018 01:00:00 - 15.08.2018 01:00:00 (CEST)Görlitz, Allemagne (10499): Vitesse du vent & gusts: 09.08.2018 01:00:00 - 15.08.2018 01:00:00 (CEST)Görlitz, Allemagne (10499): Direction du vent: 09.08.2018 01:00:00 - 15.08.2018 01:00:00 (CEST)Görlitz, Allemagne (10499): reduced air pressure: 09.08.2018 01:00:00 - 15.08.2018 01:00:00 (CEST)Görlitz, Allemagne (10499): visibility: 09.08.2018 01:00:00 - 15.08.2018 01:00:00 (CEST)Görlitz, Allemagne (10499): Ensoleillement: 09.08.2018 01:00:00 - 15.08.2018 01:00:00 (CEST)Görlitz, Allemagne (10499): Quantités de précipitations: 09.08.2018 01:00:00 - 15.08.2018 01:00:00 (CEST)
Date & Time tt [°C] td [°C] tt 5cm [°C] tt -5cm [°C] tt -20cm [°C] tt -100cm [°C] ff [km/h] ff [knt] fx [km/h] fx [knt] dd ppp [hPa] vv [km] sd [min] rr [mm]
15.08.2018 01:00:00 17,8 14,4 17,6 23,4 24,0 20,8 16 8 32 18 W 1015,4 35 0 0,0
15.08.2018 00:00:00 19,3 13,7 18,8 23,8 24,2 20,8 18 10 33 18 W 1014,9 35 0 0,0
14.08.2018 23:00:00 19,5 13,1 18,6 24,3 24,3 20,8 13 7 31 17 W 1014,2 35 0 0,0
14.08.2018 22:00:00 20,7 13,1 20,4 24,8 24,4 20,8 19 10 31 17 W 1014,0 40 0 0,0
14.08.2018 21:00:00 21,6 12,3 21,3 25,3 24,4 20,8 14 7 31 17 W 1013,2 50 0 0,0
14.08.2018 20:00:00 22,5 11,9 22,4 25,9 24,4 20,8 15 8 30 16 WNW 1012,2 55 18 0,0
14.08.2018 19:00:00 23,7 11,3 25,4 26,3 24,2 20,8 19 10 35 19 W 1011,7 60 27 0,0
14.08.2018 18:00:00 24,2 10,8 25,4 26,6 24,0 20,8 15 8 35 19 W 1011,0 70 37 0,0
14.08.2018 17:00:00 25,1 10,4 29,6 26,3 23,7 20,8 17 9 32 18 W 1010,9 80 56 0,0
14.08.2018 16:00:00 24,8 10,9 27,7 25,8 23,4 20,8 18 10 34 19 W 1010,9 70 41 0,0
14.08.2018 15:00:00 24,7 10,5 29,6 25,2 23,2 20,8 19 10 35 19 W 1011,1 65 36 0,0
14.08.2018 14:00:00 24,9 12,1 31,1 24,3 23,0 20,8 16 9 29 16 W 1011,1 75 31 0,0
14.08.2018 13:00:00 22,9 12,6 27,9 23,7 22,9 20,8 14 8 24 13 W 1011,1 65 35 0,0
14.08.2018 12:00:00 21,7 13,0 25,2 22,8 22,9 20,8 14 8 24 13 WSW 1011,5 60 30 0,0
14.08.2018 11:00:00 20,5 14,5 23,2 22,5 22,9 20,8 11 6 25 13 W 1011,4 50 14 0,0
14.08.2018 10:00:00 20,2 14,4 22,2 22,3 23,0 20,8 14 8 25 14 W 1011,2 35 46 0,0
14.08.2018 09:00:00 19,2 15,4 19,0 22,2 23,2 20,8 13 7 23 12 WSW 1010,9 27 31 0,0
14.08.2018 08:00:00 17,8 16,3 17,6 22,3 23,4 20,8 10 6 18 10 SW 1010,7 40 1 0,0
14.08.2018 07:00:00 17,9 16,0 17,3 22,5 23,6 20,8 14 7 19 10 SSW 1010,2 40 0 0,0
14.08.2018 06:00:00 17,3 16,0 17,0 22,8 23,7 20,8 8 4 19 10 SW 1009,8 35 0 0,1
14.08.2018 05:00:00 17,5 16,0 16,9 23,1 23,9 20,8 12 6 19 10 SSW 1009,7 18 0 0,8
14.08.2018 04:00:00 18,0 15,6 17,0 23,4 24,1 20,8 12 7 25 13 SW 1009,8 15 0 0,4
14.08.2018 03:00:00 19,5 14,9 19,0 23,8 24,3 20,8 15 8 22 12 SW 1009,7 25 0 0,0
14.08.2018 02:00:00 20,2 14,6 19,6 24,1 24,5 20,8 11 6 21 11 SSW 1009,3 30 0 0,0
14.08.2018 01:00:00 20,0 14,9 19,1 24,4 24,7 20,8 5 3 13 7 SSE 1008,9 30 0 0,0
14.08.2018 00:00:00 20,6 14,5 19,7 24,9 24,8 20,8 8 4 13 7 WSW 1008,9 30 0 0,0
13.08.2018 23:00:00 21,3 13,2 20,4 25,3 25,0 20,8 5 3 13 7 WNW 1008,3 35 0 0,0
13.08.2018 22:00:00 21,9 13,5 20,7 25,8 25,1 20,8 4 2 12 7 SE 1007,7 30 0 0,0
13.08.2018 21:00:00 23,1 12,4 22,0 26,5 25,2 20,8 6 4 25 14 WNW 1008,3 30 0 0,0
13.08.2018 20:00:00 23,9 11,7 23,7 27,2 25,1 20,8 13 7 37 20 NW 1007,1 60 0 0,0
13.08.2018 19:00:00 24,3 12,5 24,5 28,1 24,9 20,9 27 15 53 28 W 1007,3 50 0 0,0
13.08.2018 18:00:00 30,9 8,5 31,0 28,6 24,5 20,9 11 6 19 11 SW 1004,9 70 15 0,0
13.08.2018 17:00:00 32,3 7,5 35,7 28,5 24,1 20,9 11 6 32 18 WSW 1005,1 80 58 0,0
13.08.2018 16:00:00 32,5 7,4 37,4 28,1 23,6 20,9 13 7 39 21 W 1005,5 80 58 0,0
13.08.2018 15:00:00 32,4 7,7 38,2 27,3 23,0 20,9 18 10 41 22 WSW 1006,1 80 60 0,0
13.08.2018 14:00:00 31,2 7,7 36,5 26,4 22,6 20,9 21 11 41 22 SW 1006,7 80 60 0,0
13.08.2018 13:00:00 30,4 10,5 35,2 25,2 22,1 20,9 25 13 38 21 S 1007,3 75 60 0,0
13.08.2018 12:00:00 29,5 10,5 33,9 24,0 21,7 20,9 24 13 35 19 SW 1007,9 80 60 0,0
13.08.2018 11:00:00 28,4 9,4 33,2 22,6 21,5 20,9 19 10 29 16 S 1008,4 80 60 0,0
13.08.2018 10:00:00 26,9 9,6 30,5 21,4 21,4 20,9 18 10 25 13 S 1008,6 80 60 0,0
13.08.2018 09:00:00 24,2 10,4 27,3 20,4 21,5 20,9 14 8 22 12 S 1009,3 80 60 0,0
13.08.2018 08:00:00 21,9 9,8 23,7 19,9 21,7 21,0 9 5 16 9 S 1009,8 80 60 0,0
13.08.2018 07:00:00 17,4 9,4 17,2 19,8 21,9 21,0 14 7 17 9 S 1010,1 80 47 0,0
13.08.2018 06:00:00 15,7 7,6 11,2 20,2 22,2 21,0 3 2 8 4 S 1010,5 80 0 0,0
13.08.2018 05:00:00 14,5 9,1 12,0 20,5 22,4 21,0 6 3 9 5 SSE 1010,9 60 0 0,0
13.08.2018 04:00:00 14,5 10,0 12,3 20,9 22,7 21,0 6 3 9 5 SSE 1011,2 55 0 0,0
13.08.2018 03:00:00 14,5 10,5 12,1 21,4 22,9 21,0 5 3 8 4 SSE 1011,7 55 0 0,0
13.08.2018 02:00:00 14,9 10,0 11,8 21,8 23,2 21,0 5 3 9 5 SSE 1011,9 60 0 0,0
13.08.2018 01:00:00 15,2 8,9 13,0 22,4 23,4 21,0 8 4 9 5 SE 1012,4 60 0 0,0
13.08.2018 00:00:00 16,3 8,3 12,9 23,0 23,6 21,1 6 3 10 5 SE 1012,6 60 0 0,0
12.08.2018 23:00:00 18,2 7,7 15,5 23,7 23,8 21,1 9 5 13 7 SSE 1012,9 60 0 0,0
12.08.2018 22:00:00 20,6 6,7 17,9 24,4 23,9 21,1 8 4 11 6 ESE 1013,0 70 0 0,0
12.08.2018 21:00:00 21,5 6,4 19,2 25,3 23,9 21,1 7 4 10 5 ENE 1013,3 82 0 0,0
12.08.2018 20:00:00 24,0 6,2 20,8 26,1 23,7 21,2 3 2 16 9 W 1013,2 80 35 0,0
12.08.2018 19:00:00 26,3 4,1 26,6 26,6 23,4 21,2 9 5 25 13 WSW 1013,5 80 60 0,0
12.08.2018 18:00:00 26,5 3,3 28,1 26,8 23,0 21,2 14 8 26 14 SSW 1014,1 80 60 0,0
12.08.2018 17:00:00 26,6 3,1 29,9 26,5 22,6 21,2 18 10 33 18 SW 1014,7 80 60 0,0
12.08.2018 16:00:00 26,5 3,6 30,6 25,9 22,1 21,2 19 11 34 19 SSW 1015,5 80 60 0,0
12.08.2018 15:00:00 25,4 3,5 30,3 25,3 21,5 21,3 13 7 28 15 SW 1016,2 80 60 0,0
12.08.2018 14:00:00 24,8 3,8 29,9 24,3 21,0 21,3 19 11 33 18 SSW 1017,3 80 60 0,0
12.08.2018 13:00:00 24,1 4,4 29,2 23,0 20,5 21,3 18 10 29 16 SSW 1018,2 80 60 0,0
12.08.2018 12:00:00 22,9 4,0 28,9 21,6 20,2 21,3 13 7 30 16 SW 1018,9 80 60 0,0
12.08.2018 11:00:00 21,6 5,1 26,4 20,1 20,0 21,3 11 6 21 11 S 1019,6 80 60 0,0
12.08.2018 10:00:00 19,2 6,5 23,7 18,7 19,9 21,3 8 5 14 8 SSE 1020,2 80 60 0,0
12.08.2018 09:00:00 16,6 7,2 19,8 17,8 20,1 21,4 8 4 11 6 SE 1020,7 80 60 0,0
12.08.2018 08:00:00 13,6 9,2 15,6 17,3 20,3 21,4 4 2 8 4 SSE 1021,2 80 60 0,0
12.08.2018 07:00:00 10,8 8,8 10,0 17,3 20,5 21,4 2 1 8 4 SSE 1021,8 80 40 0,0
12.08.2018 06:00:00 9,4 8,1 7,8 17,6 20,8 21,4 5 3 7 4 SSE 1021,9 55 0 0,0
12.08.2018 05:00:00 9,0 6,7 6,7 18,0 21,1 21,4 0 0 6 4 N 1022,2 45 0 0,0
12.08.2018 04:00:00 10,9 7,4 8,1 18,4 21,4 21,4 6 3 8 5 S 1022,1 40 0 0,0
12.08.2018 03:00:00 11,5 6,4 9,3 18,9 21,7 21,4 6 3 9 5 SSE 1022,4 50 0 0,0
12.08.2018 02:00:00 12,8 6,1 9,8 19,3 22,0 21,5 9 5 11 6 W 1022,3 60 0 0,0
12.08.2018 01:00:00 14,6 5,5 10,3 19,9 22,3 21,5 8 4 10 6 WSW 1022,0 60 0 0,0
12.08.2018 00:00:00 15,0 5,7 11,1 20,4 22,5 21,5 6 4 8 4 WSW 1021,7 60 0 0,0
11.08.2018 23:00:00 15,8 6,1 11,8 21,0 22,8 21,5 6 3 10 5 W 1021,4 60 0 0,0
11.08.2018 22:00:00 16,0 6,2 12,3 21,8 23,0 21,5 5 3 10 5 WSW 1020,9 65 0 0,0
11.08.2018 21:00:00 18,8 6,1 15,4 22,5 23,0 21,5 6 4 20 11 W 1020,0 70 23 0,0
11.08.2018 20:00:00 21,2 6,4 19,6 23,1 23,1 21,5 12 6 33 18 WNW 1019,3 70 60 0,0
11.08.2018 19:00:00 22,5 6,9 22,7 23,4 23,0 21,6 13 7 37 20 WNW 1018,7 70 60 0,0
11.08.2018 18:00:00 23,5 7,8 25,1 23,5 22,9 21,6 16 9 34 18 WNW 1018,5 65 51 0,0
11.08.2018 17:00:00 22,6 10,1 23,1 23,6 22,8 21,6 13 7 29 16 W 1018,6 60 51 0,0
11.08.2018 16:00:00 22,8 11,4 26,2 23,0 22,8 21,6 14 7 24 13 WSW 1018,9 60 58 0,0
11.08.2018 15:00:00 17,6 13,5 17,7 22,6 22,8 21,6 8 4 33 18 SW 1020,1 50 1 0,7
11.08.2018 14:00:00 16,5 12,8 15,4 23,3 22,7 21,6 18 10 42 23 WSW 1020,9 15 0 2,2
11.08.2018 13:00:00 19,8 11,1 20,6 23,6 22,4 21,6 29 15 53 28 W 1020,2 15 1 0,0
11.08.2018 12:00:00 23,1 8,3 25,2 23,0 22,2 21,6 17 9 33 18 SW 1019,6 60 28 0,0
11.08.2018 11:00:00 22,6 9,6 27,1 22,0 22,1 21,6 15 8 24 13 WSW 1020,2 60 32 0,0
11.08.2018 10:00:00 20,4 10,3 21,2 21,3 22,1 21,6 16 9 22 12 SW 1020,9 60 39 0,0
11.08.2018 09:00:00 19,8 11,0 22,9 20,6 22,2 21,6 12 6 19 11 SW 1021,1 70 55 0,0
11.08.2018 08:00:00 17,1 10,9 17,4 20,2 22,4 21,7 9 5 16 8 SSW 1021,2 70 47 0,0
11.08.2018 07:00:00 15,4 10,9 15,5 20,2 22,6 21,6 11 6 18 10 S 1021,3 65 27 0,0
11.08.2018 06:00:00 14,6 10,7 12,8 20,5 22,8 21,7 12 7 16 9 S 1021,7 65 0 0,0
11.08.2018 05:00:00 15,0 10,8 12,6 20,8 23,1 21,6 9 5 16 9 SSW 1021,7 40 0 0,0
11.08.2018 04:00:00 14,9 11,1 12,0 21,1 23,3 21,7 3 2 13 7 SE 1022,2 50 0 0,0
11.08.2018 03:00:00 15,4 10,9 13,3 21,4 23,5 21,7 11 6 19 10 S 1022,7 50 0 0,0
11.08.2018 02:00:00 16,3 11,2 15,0 21,7 23,8 21,7 13 7 18 10 SSW 1022,9 50 0 0,0
11.08.2018 01:00:00 15,0 12,0 12,3 22,0 24,0 21,7 5 3 9 5 SSW 1023,2 50 0 0,0
11.08.2018 00:00:00 15,5 12,8 12,4 22,5 24,3 21,7 7 4 12 7 SW 1023,2 60 0 0,0
10.08.2018 23:00:00 16,3 13,5 14,9 22,9 24,5 21,7 11 6 18 10 S 1023,2 60 0 0,0
10.08.2018 22:00:00 16,7 13,3 15,4 23,4 24,7 21,7 13 7 17 9 S 1023,1 55 0 0,0
10.08.2018 21:00:00 16,9 12,8 15,0 23,9 24,9 21,7 11 6 16 8 S 1022,9 65 23 0,0
10.08.2018 20:00:00 19,2 12,5 18,5 24,3 25,0 21,7 10 5 14 7 SSW 1022,5 60 8 0,0
10.08.2018 19:00:00 19,5 11,0 19,9 24,6 25,2 21,7 9 5 14 8 SW 1022,4 50 1 0,0
10.08.2018 18:00:00 18,6 13,2 17,7 25,0 25,2 21,7 10 5 21 12 WSW 1022,9 55 0 0,4
10.08.2018 17:00:00 19,6 12,7 17,8 25,4 25,3 21,6 11 6 23 12 W 1022,8 30 0 0,0
10.08.2018 16:00:00 21,0 11,6 23,2 25,5 25,3 21,6 13 7 24 13 W 1022,7 50 0 0,0
10.08.2018 15:00:00 21,0 11,6 22,9 25,6 25,3 21,6 11 6 26 14 W 1022,6 65 0 0,0
10.08.2018 14:00:00 21,6 12,2 24,2 25,4 25,3 21,6 14 8 28 15 WNW 1022,2 70 0 0,0
10.08.2018 13:00:00 20,9 12,6 23,1 25,3 25,3 21,6 14 8 28 15 W 1021,7 65 0 0,0
10.08.2018 12:00:00 21,5 12,2 23,3 25,2 25,4 21,6 14 8 34 18 W 1021,4 70 0 0,0
10.08.2018 11:00:00 22,1 10,4 23,0 25,1 25,5 21,6 23 12 34 18 WSW 1020,8 70 0 0,0
10.08.2018 10:00:00 22,1 11,5 23,7 25,0 25,6 21,6 19 11 32 18 W 1020,2 70 0 0,0
10.08.2018 09:00:00 22,2 13,4 23,3 24,9 25,7 21,6 13 7 21 12 W 1019,6 65 0 0,0
10.08.2018 08:00:00 21,7 13,3 21,9 25,0 25,9 21,6 13 7 22 12 W 1018,8 60 0 0,0
10.08.2018 07:00:00 21,8 13,0 21,5 25,2 26,1 21,6 15 8 24 13 W 1017,5 50 0 0,0
10.08.2018 06:00:00 21,5 12,8 21,0 25,5 26,3 21,6 12 7 21 11 SW 1017,0 35 0 0,0
10.08.2018 05:00:00 21,6 13,0 20,7 25,8 26,5 21,6 14 8 21 12 WSW 1016,3 30 0 0,0
10.08.2018 04:00:00 22,5 14,5 22,0 26,1 26,7 21,6 14 8 21 11 WSW 1015,6 35 0 0,0
10.08.2018 03:00:00 23,1 14,1 22,2 26,5 26,9 21,6 14 7 27 15 WNW 1014,8 40 0 0,0
10.08.2018 02:00:00 24,0 13,5 22,6 26,9 27,1 21,5 13 7 34 19 WNW 1014,1 40 0 0,0
10.08.2018 01:00:00 26,2 13,8 25,0 27,2 27,3 21,6 21 12 42 23 W 1012,8 35 0 0,0
10.08.2018 00:00:00 27,9 15,2 26,3 27,6 27,5 21,5 18 10 30 16 SW 1010,6 30 0 0,0
09.08.2018 23:00:00 24,6 18,0 22,7 28,1 27,7 21,5 10 5 16 9 SSE 1010,0 25 0 0,0
09.08.2018 22:00:00 26,5 18,3 25,0 28,7 27,8 21,5 12 6 23 12 SE 1009,4 27 0 0,0
09.08.2018 21:00:00 27,6 18,0 26,6 29,3 27,9 21,5 16 9 25 14 ESE 1009,4 35 0 0,0
09.08.2018 20:00:00 28,5 17,1 27,9 29,9 27,9 21,5 13 7 23 12 E 1009,7 40 24 0,0
09.08.2018 19:00:00 29,5 16,7 30,0 30,3 27,8 21,5 15 8 29 16 E 1010,1 45 42 0,0
09.08.2018 18:00:00 29,7 14,4 30,5 30,8 27,6 21,5 20 11 41 22 E 1010,7 50 6 0,0
09.08.2018 17:00:00 29,2 16,7 30,1 31,4 27,2 21,5 27 15 51 28 E 1011,0 40 34 0,0
09.08.2018 16:00:00 33,3 15,4 35,0 31,2 26,8 21,5 18 10 29 15 ESE 1011,0 45 50 0,0
09.08.2018 15:00:00 33,8 14,4 39,4 30,4 26,4 21,5 7 4 27 15 ESE 1011,6 50 58 0,0
09.08.2018 14:00:00 33,6 14,8 38,9 29,6 25,9 21,5 13 7 25 13 ESE 1012,5 55 38 0,0
09.08.2018 13:00:00 32,2 13,9 36,8 28,8 25,5 21,5 13 7 22 12 E 1013,3 60 54 0,0
09.08.2018 12:00:00 31,5 14,5 36,9 27,6 25,3 21,5 9 5 16 9 ESE 1013,9 40 60 0,0
09.08.2018 11:00:00 29,7 13,7 35,2 26,3 25,1 21,5 8 5 13 7 S 1014,5 45 60 0,0
09.08.2018 10:00:00 27,1 15,3 32,3 25,2 25,1 21,5 5 3 11 6 SSE 1014,9 45 54 0,0
09.08.2018 09:00:00 23,9 16,6 26,9 24,5 25,3 21,5 4 2 12 7 W 1015,1 50 51 0,0
09.08.2018 08:00:00 21,3 16,3 23,7 24,1 25,5 21,5 8 5 11 6 SE 1015,1 50 28 0,0
09.08.2018 07:00:00 18,8 16,5 18,0 24,3 25,7 21,5 0 0 11 6 N 1015,4 60 2 0,0
09.08.2018 06:00:00 18,6 15,8 17,2 24,6 26,0 21,5 7 4 11 6 SE 1015,0 50 0 0,0
09.08.2018 05:00:00 19,2 14,9 17,8 25,0 26,2 21,5 10 5 14 8 WSW 1014,3 50 0 0,0
09.08.2018 04:00:00 19,0 17,0 17,5 25,4 26,5 21,4 6 3 12 7 S 1014,5 50 0 0,0
09.08.2018 03:00:00 19,4 16,9 17,4 25,8 26,7 21,4 0 0 8 4 N 1014,6 50 0 0,0
09.08.2018 02:00:00 19,1 16,8 17,2 26,3 27,0 21,4 4 2 10 6 S 1014,6 50 0 0,0
09.08.2018 01:00:00 20,4 17,6 18,8 26,8 27,2 21,4 5 3 9 5 S 1014,4 50 0 0,0

tt = Température de l'air
td = dewpoint
tt 5cm = Température de l'air 5cm
tt -5cm = Température de l'air -5cm
tt -20cm = Température de l'air -20cm
tt -100cm = Température de l'air -100cm
ff = Vitesse du vent
fx = gusts
dd = Direction du vent
ppp = reduced air pressure
vv = visibility
sd = Ensoleillement
rr = Quantités de précipitations

stations d'obs. à proximité